Regional Weather Roundup
Issued by NWS Sioux Falls, SD

Home | Current Version | Previous Version | Text Only | Print | Product List | Glossary On
Versions: 1 2 3 4 5 6 7 8 9 10 11 12 13 14 15 16 17 18 19 20 21 22 23 24 25 26 27 28 29 30 31 32 33 34 35 36 37 38 39 40 41 42 43 44 45 46 47 48 49 50
000
ASUS43 KFSD 210710
RWRFSD

WEATHER ROUNDUP FOR SE SOUTH DAKOTA/SW MINNESOTA/NW IOWA
NATIONAL WEATHER SERVICE SIOUX FALLS SD
200 AM CDT THU AUG 21 2014

NOTE: "FAIR" INDICATES FEW OR NO CLOUDS BELOW 12,000 FEET WITH NO
SIGNIFICANT WEATHER AND OR OBSTRUCTIONS TO VISIBILITY.


SDZ038>040-050-052>070-210800-
SOUTHEAST SOUTH DAKOTA

CITY           SKY/WX    TMP DP  RH WIND       PRES   REMARKS
CHAMBERLAIN      N/A     70  70  99 SE6       29.67F FOG
HURON          PTCLDY    74  72  93 S8        29.64F
MADISON        FAIR      72  72 100 S8        29.70F
MITCHELL       CLEAR     76  74  93 S8        29.65F
SIOUX FALLS    PTCLDY    77  72  84 S13       29.69F
WINNER         FAIR      75  68  78 W10       29.71F
YANKTON        MOCLDY    75  73  94 SE9       29.68F
$$

MNZ071-072-080-081-089-090-097-098-210800-
SOUTHWEST MINNESOTA

CITY           SKY/WX    TMP DP  RH WIND       PRES   REMARKS
FAIRMONT       CLOUDY    70  64  83 MISG      29.80F
JACKSON        CLOUDY    70  68  94 SE13      29.78F
LUVERNE        MOCLDY    75  72  88 S9        29.73F
MARSHALL       CLOUDY    70  64  83 S21       29.72F THUNDER
MONTEVIDEO     TSTM      72  70  94 S10       29.73F
PIPESTONE      CLOUDY    75  72  88 SE10G17   29.74F
REDWOOD FALLS  CLOUDY    72  68  87 E13       29.76S
TRACY          TSTM      67  65  94 SE16G24   29.81S
WINDOM         TSTM      72  68  88 E13G18    29.76F
WORTHINGTON    MOCLDY    73  14  10 S15G21    29.75F
$$

IAZ001>003-012>014-020>022-031-032-NEZ013-014-SDZ071-210800-
NORTHWEST IOWA

CITY           SKY/WX    TMP DP  RH WIND       PRES   REMARKS
CHEROKEE       CLEAR     74  73  98 S7        29.77S
DENISON        MOCLDY    77  73  88 S15G21    29.78F
ESTHERVILLE    MOCLDY    70  70 100 SE12      29.78F
LE MARS        MOCLDY    75  73  94 S8G14     29.73F
ORANGE CITY    PTCLDY    77  72  83 S10G16    29.74F
SHELDON        PTCLDY    73  73 100 SE15      29.74F
SIOUX CITY     CLOUDY    78  73  84 S9G17     29.72F
SPENCER        PTCLDY    74  71  91 S12       29.78F
STORM LAKE     CLEAR     72  72 100 SE9       29.80F
$$

ABBREVIATIONS USED IN REMARKS
   TC - TEMPERATURE IN CELSIUS
  WCI - WIND CHILL INDEX
   HX - HEAT INDEX
  VSB - VISIBILITY



USA.gov is the U.S. government's official web portal to all federal, state and local government web resources and services.